Regional Weather Roundup
Issued by NWS

Home | Current Version | Previous Version | Graphics & Text | Print | Product List | Glossary On
Versions: 1 2 3 4 5 6 7 8 9 10 11 12 13 14 15 16 17 18 19 20 21 22 23 24 25 26 27 28 29 30 31 32 33 34 35 36 37 38 39 40 41 42 43 44 45 46 47 48 49 50
000
ASUS43 KOAX 130910
RWRNE

WEATHER ROUNDUP FOR NEBRASKA
NATIONAL WEATHER SERVICE OMAHA NE
400 AM CDT SUN JUL 13 2014

NOTES: SATELLITE DATA IS BEING USED TO AUGMENT CLOUD COVER ABOVE
       12000 FEET.
       "FAIR" INDICATES FEW OR NO CLOUDS BELOW 12,000 FEET WITH NO
       SIGNIFICANT WEATHER AND/OR OBSTRUCTIONS TO VISIBILITY.

  * THESE STATIONS DO NOT REPORT WEATHER SUCH AS RAIN...SNOW OR FOG.

NEZ001>004-019>022-054>056-131000-
NEBRASKA PANHANDLE

CITY           SKY/WX    TMP DP  RH WIND       PRES   REMARKS
SCOTTSBLUFF    PTCLDY    63  62  97 CALM      30.25F
ALLIANCE       CLEAR     57  56  96 W5        30.24S
CHADRON        CLEAR     56  55  97 SW6       30.21F
KIMBALL        PTCLDY    61  59  95 SW6       30.28S
SIDNEY         PTCLDY    58  55  90 W5        30.27S
$$

NEZ057>060-069>072-079>082-131000-
SOUTHWEST NEBRASKA

CITY           SKY/WX    TMP DP  RH WIND       PRES   REMARKS
NORTH PLATTE   CLEAR     61  60  97 NW3       30.16S
IMPERIAL       PTCLDY    65  61  87 W6        30.19R
LEXINGTON      CLEAR     63  62  97 CALM      30.13S
MCCOOK         PTCLDY    65  64  97 W6        30.15R
OGALLALA       CLEAR     60  59  97 CALM      30.20R
$$

NEZ005>010-023>029-035>040-094-131000-
NORTH CENTRAL NEBRASKA

CITY           SKY/WX    TMP DP  RH WIND       PRES   REMARKS
VALENTINE      CLEAR     62  61  96 W6        30.13F
AINSWORTH      CLEAR     62  61  97 W7        30.13S
BROKEN BOW     CLEAR     62  61  96 CALM      30.13R
O`NEILL        CLEAR     64  61  90 W5        30.08S
ORD            CLEAR     62  61  96 SW3       30.10R
THEDFORD       CLEAR     64  62  94 W5        30.17R
$$

NEZ041-046>049-061>064-073>077-083>087-131000-
SOUTH CENTRAL NEBRASKA

CITY           SKY/WX    TMP DP  RH WIND       PRES   REMARKS
GRAND ISLAND   CLEAR     66  63  90 W3        30.10S
AURORA         PTCLDY    64  64 100 CALM      30.08F
HASTINGS       PTCLDY    67  63  87 CALM      30.09F
HEBRON         MOCLDY    71  68  90 NE7       30.05S
HOLDREGE       PTCLDY    65  64  95 CALM      30.13R FOG
KEARNEY *      PTCLDY    66  63  88 NW6       30.11F
YORK           PTCLDY    64  64 100 CALM      30.08F FOG
$$

NEZ011>018-030>034-042>045-131000-
NORTHEAST NEBRASKA

CITY           SKY/WX    TMP DP  RH WIND       PRES   REMARKS
NORFOLK        CLEAR     63  61  93 CALM      30.06R
ALBION         CLEAR     62  61  96 CALM      30.08F
BLAIR          PTCLDY    66  63  90 SW5       30.04F
TEKAMAH        CLEAR     62  60  93 S5        30.03S
WAYNE          CLEAR     63  62  97 SW3       30.06R
$$

NEZ050>053-065>068-078-088>093-131000-
SOUTHEAST NEBRASKA

CITY           SKY/WX    TMP DP  RH WIND       PRES   REMARKS
LINCOLN        MOCLDY    68  64  87 NW6       30.05F
OMAHA EPPLEY   PTCLDY    69  65  86 CALM      30.03F
BEATRICE       MOCLDY    67  67  98 NE6       30.04F
FALLS CITY     TSTM      72  72 100 NW3       30.01F FOG
NEBRASKA CITY  CLOUDY    68  68 100 CALM      30.03F
PLATTSMOUTH    MOCLDY    67  65  93 CALM      30.04S
$$

NEZ044-045-051>053-067-131000-
OMAHA AREA

CITY           SKY/WX    TMP DP  RH WIND       PRES   REMARKS
OMAHA EPPLEY   PTCLDY    69  65  86 CALM      30.03F
BLAIR          PTCLDY    66  63  90 SW5       30.04F
MILLARD        PTCLDY    68  66  94 CALM      30.03F
OFFUTT AFB     PTCLDY    65  65 100 NW3       30.03R
PLATTSMOUTH    MOCLDY    67  65  93 CALM      30.04S
WAHOO          FAIR      67  65  90 W5        30.04F FOG
$$



USA.gov is the U.S. government's official web portal to all federal, state and local government web resources and services.